#timestamp,LO_Frequency,Hit,StdDev 
1630116015.4,286046998.5,P
1630116035.2,286046996.5,Y
1630116055.0,286046999.4,P
1630116055.9,286046999.4,N
1630116075.8,286046999.0,N
1630116095.6,286046996.9,Y
1630116115.5,286046996.9,P
1630116135.3,286046998.9,N
1630116155.1,286046999.1,N
1630116175.9,286046999.5,N
1630116195.7,286046997.0,Y
1630116215.6,286046998.9,P
1630116235.4,286046999.5,P
1630116255.2,286046998.3,P
1630116275.1,286046998.8,N
1630116276.0,286046998.8,Y
1630116295.8,286046998.8,P
1630116315.7,286046998.8,P
1630116335.5,286047000.8,P
1630116355.3,286047000.8,N
1630116375.2,286046998.6,N
1630116425.9,286047001.0,E
1630116435.9,286046998.8,N
1630116455.7,286046999.5,P
1630116475.5,286046998.6,P
1630116495.4,286047000.8,N
1630116515.2,286047000.8,N
1630116535.0,286046998.2,N
1630116535.9,286046998.2,N
1630116555.8,286046999.2,N
1630116575.6,286046997.0,Y
1630116595.5,286046999.4,P
1630116615.3,286046999.5,P
1630116635.1,286046998.3,P
1630116655.9,286047001.2,N
1630116675.7,286047000.9,N
1630116695.5,286047001.1,N
1630116715.4,286046998.5,N
1630116735.2,286047001.2,N
1630116755.1,286047000.9,N
1630116756.0,286047000.9,N
1630116775.8,286047002.6,N
1630116795.7,286047001.8,N
1630116815.5,286047003.9,Y
1630116835.4,286047003.6,P
1630116855.2,286047003.2,N
1630116875.0,286047003.7,N
1630116875.9,286047003.7,N
1630116895.8,286047002.1,N
1630116915.6,286046999.8,N
1630116935.4,286046999.9,N
1630116955.3,286047002.7,N
1630116975.1,286047000.9,N
1630116995.9,286047000.4,N
1630117015.7,286047000.7,N
1630117035.5,286047000.7,N
1630117055.4,286046999.7,N
1630117075.2,286047000.4,N
1630117095.0,286047000.3,N
1630117095.9,286047000.3,N
1630117115.8,286047000.1,N
1630117135.6,286046999.9,N
1630117155.5,286046999.9,N
1630117175.3,286047002.4,N
1630117195.1,286047002.3,N
1630117215.9,286047000.1,N
1630117235.7,286047000.4,N
1630117255.5,286047002.7,N
1630117275.4,286047001.3,N
1630117295.3,286047000.3,N
1630117315.1,286047000.4,N
1630117335.8,286046998.1,N
1630117355.7,286047000.0,N
1630117375.5,286046998.1,N
1630117395.4,286047000.8,N
1630117415.2,286046998.1,N
1630117435.0,286047000.7,N
1630117435.9,286047000.7,N
1630117455.8,286047001.2,N
1630117475.6,286047002.3,N
1630117495.4,286047001.7,N
1630117515.3,286047001.3,N
1630117535.1,286047001.9,N
1630117555.9,286047002.8,N
1630117575.7,286047001.1,N
1630117595.5,286046998.1,N
1630117615.4,286046996.6,N
1630117635.2,286046997.3,N
1630117655.0,286046996.9,N
1630117655.9,286046996.9,N
1630117675.8,286047000.9,N
1630117695.6,286047000.3,N
1630117715.5,286047002.6,N
1630117735.3,286047002.5,N
1630117755.1,286047000.1,N
1630117775.9,286047002.6,N
1630117795.7,286047002.5,N
1630117815.6,286047002.3,N
1630117835.4,286047002.4,N
1630117855.2,286047002.1,N
1630117875.1,286047001.3,N
1630117876.0,286047001.3,N
1630117895.8,286047001.8,N
1630117915.6,286047001.4,N
1630117935.5,286047003.8,N
1630117955.3,286047003.6,N
1630117975.1,286047003.0,N
1630117995.9,286047003.3,N
1630118015.7,286047003.4,N
1630118035.6,286047003.5,N
1630118055.4,286047003.3,N
1630118075.2,286047003.1,N
1630118095.1,286047003.1,N
1630118096.0,286047003.1,N
1630118115.8,286047002.9,N
1630118135.7,286047005.8,N
1630118155.5,286047002.9,N
1630118175.3,286047005.8,N
1630118195.2,286047003.5,N
1630118215.9,286047004.2,N
1630118235.7,286047004.2,Y
1630118255.6,286047000.3,P
1630118275.4,286046998.7,N
1630118295.3,286047001.2,N
1630118315.1,286046998.8,N
1630118316.0,286046998.8,N
1630118335.8,286046998.3,N
1630118355.7,286046998.1,N
1630118375.5,286047000.8,N
1630118395.2,286047001.1,N
1630118415.9,286046998.5,N
1630118435.7,286046999.6,N
1630118455.6,286046999.4,N
1630118475.4,286046998.4,N
1630118495.2,286047000.7,N
1630118515.1,286047001.2,N
1630118516.0,286047001.2,N
1630118535.8,286047002.8,N
1630118555.7,286047000.1,N
1630118575.5,286046998.5,N
1630118595.3,286046999.9,N
1630118615.2,286047002.2,N
1630118635.0,286047002.4,N
1630118635.9,286047002.4,N
1630118655.7,286047002.2,N
1630118675.6,286047002.5,N
1630118695.4,286047002.6,N
1630118715.3,286047002.7,N
1630118735.1,286047002.2,N
1630118736.0,286047002.2,N
1630118755.8,286047000.2,N
1630118775.7,286047002.4,N
1630118795.7,286046999.7,N
1630118815.5,286047002.5,N
1630118835.4,286047002.3,N
1630118855.2,286046999.7,N
1630118875.0,286046999.9,N
1630118875.9,286046999.9,N
1630118895.8,286046999.8,N
1630118915.6,286047002.1,N
1630118935.4,286047001.5,N
1630118955.3,286047001.6,N
1630118975.1,286047003.9,N
1630118995.9,286047004.3,Y
1630119015.7,286047002.4,P
1630119035.5,286047002.2,P
1630119055.4,286047002.6,P
1630119075.2,286047002.2,Y
1630119095.1,286047000.9,P
1630119096.0,286047000.9,N
1630119115.8,286046999.7,N
1630119135.6,286047000.4,N
1630119155.5,286047000.7,N
1630119175.3,286047000.2,N
1630119195.1,286047000.3,N
1630119215.9,286047000.1,N
1630119235.7,286047000.4,N
1630119255.6,286046998.6,N
1630119275.4,286046999.6,N
1630119295.2,286046999.6,N
1630119315.1,286046999.4,N
1630119316.0,286046999.4,N
1630119335.8,286046998.2,N
1630119355.6,286047001.1,N
1630119375.5,286046998.5,N
1630119395.3,286047001.2,N
1630119415.2,286047000.5,N
1630119435.9,286047001.1,N
1630119455.7,286046998.9,N
1630119475.6,286046999.3,N
1630119495.4,286046998.7,N
1630119515.2,286046998.7,N
1630119535.1,286046998.8,N
1630119536.0,286046998.8,N
1630119555.8,286046999.3,N
1630119575.7,286046997.1,N
1630119595.5,286046997.4,N
